FLI9466 EKVG-BIAR

Flight info

Callsign FLI9466
Flight time 0h 58m
Altitude 38000
Route M074F380 MY DCT 63N010W DCT BRUSI/N0420F380 DCT MAMEP
Aircraft A320/M-SDFGHIJ1RWXY/B1G1L

Departure

Time 2026-04-22 15:07
Airport Vágar Airport (EKVG)

Arrival

Time 2026-04-22 16:05
Airport Akureyri International Airport (BIAR)
Time Latitude Longitude Altitude Speed Heading
2026-04-22 14:45 62.06686 -7.27945 279 ft 0 kts 29°
2026-04-22 14:59 62.06678 -7.27955 279 ft 4 kts 16°
2026-04-22 15:00 62.06656 -7.27951 279 ft 4 kts 324°
2026-04-22 15:00 62.06637 -7.27911 281 ft 4 kts 303°
2026-04-22 15:00 62.06630 -7.27887 279 ft 0 kts 297°
2026-04-22 15:02 62.06633 -7.27902 283 ft 4 kts 297°
2026-04-22 15:02 62.06645 -7.27964 279 ft 5 kts 288°
2026-04-22 15:02 62.06651 -7.28036 281 ft 5 kts 268°
2026-04-22 15:03 62.06630 -7.28083 283 ft 5 kts 206°
2026-04-22 15:03 62.06596 -7.28093 278 ft 6 kts 184°
2026-04-22 15:03 62.06551 -7.28106 279 ft 6 kts 195°
2026-04-22 15:03 62.06511 -7.28138 280 ft 5 kts 201°
2026-04-22 15:04 62.06471 -7.28147 281 ft 9 kts 155°
2026-04-22 15:04 62.06438 -7.28038 282 ft 10 kts 117°
2026-04-22 15:04 62.06387 -7.27833 286 ft 20 kts 118°
2026-04-22 15:04 62.06315 -7.27544 287 ft 24 kts 117°
2026-04-22 15:05 62.06228 -7.27194 279 ft 30 kts 118°
2026-04-22 15:05 62.06131 -7.26802 266 ft 28 kts 118°
2026-04-22 15:05 62.06058 -7.26511 256 ft 18 kts 118°
2026-04-22 15:05 62.05999 -7.26268 247 ft 15 kts 117°
2026-04-22 15:06 62.05963 -7.26121 243 ft 7 kts 117°
2026-04-22 15:06 62.05950 -7.26013 241 ft 4 kts 136°
2026-04-22 15:06 62.05945 -7.26051 241 ft 7 kts 268°
2026-04-22 15:06 62.05967 -7.26148 243 ft 7 kts 299°
2026-04-22 15:07 62.06049 -7.26475 255 ft 63 kts 297°
2026-04-22 15:07 62.06385 -7.27821 302 ft 138 kts 298°
2026-04-22 15:07 62.06865 -7.29734 1045 ft 150 kts 297°
2026-04-22 15:07 62.07349 -7.31756 2027 ft 155 kts 292°
2026-04-22 15:08 62.07680 -7.33931 3012 ft 153 kts 281°
2026-04-22 15:08 62.07878 -7.36155 3867 ft 161 kts 281°
2026-04-22 15:08 62.08119 -7.38699 4391 ft 189 kts 281°
2026-04-22 15:08 62.08398 -7.41624 5040 ft 214 kts 281°
2026-04-22 15:09 62.08722 -7.44910 5739 ft 239 kts 281°
2026-04-22 15:09 62.09188 -7.48509 6485 ft 263 kts 287°
2026-04-22 15:09 62.09753 -7.52311 7521 ft 273 kts 287°
2026-04-22 15:09 62.10327 -7.56234 8634 ft 280 kts 287°
2026-04-22 15:10 62.10911 -7.60257 9765 ft 287 kts 287°
2026-04-22 15:10 62.11517 -7.64317 10810 ft 297 kts 290°
2026-04-22 15:10 62.12631 -7.68227 11337 ft 321 kts 310°
2026-04-22 15:10 62.14093 -7.71947 12200 ft 332 kts 311°
2026-04-22 15:11 62.15608 -7.75734 13183 ft 338 kts 312°
2026-04-22 15:11 62.17154 -7.79596 14170 ft 345 kts 313°
2026-04-22 15:11 62.18728 -7.83533 15037 ft 352 kts 312°
2026-04-22 15:11 62.20330 -7.87567 15875 ft 359 kts 312°
2026-04-22 15:12 62.21954 -7.91694 16703 ft 366 kts 311°
2026-04-22 15:12 62.23606 -7.95915 17516 ft 373 kts 311°
2026-04-22 15:12 62.25266 -8.00162 18319 ft 380 kts 311°
2026-04-22 15:12 62.26976 -8.04557 19085 ft 387 kts 311°
2026-04-22 15:13 62.28712 -8.09029 19785 ft 393 kts 311°
2026-04-22 15:13 62.30477 -8.13568 20461 ft 399 kts 311°
2026-04-22 15:13 62.32273 -8.18187 21163 ft 406 kts 311°
2026-04-22 15:13 62.34096 -8.22882 21849 ft 412 kts 311°
2026-04-22 15:14 62.35944 -8.27661 22526 ft 419 kts 311°
2026-04-22 15:14 62.37819 -8.32519 23208 ft 425 kts 311°
2026-04-22 15:14 62.39695 -8.37386 23869 ft 431 kts 311°
2026-04-22 15:14 62.41624 -8.42401 24469 ft 437 kts 311°
2026-04-22 15:15 62.43572 -8.47497 25057 ft 443 kts 310°
2026-04-22 15:15 62.45543 -8.52655 25645 ft 448 kts 310°
2026-04-22 15:15 62.47534 -8.57866 26208 ft 452 kts 310°
2026-04-22 15:15 62.49544 -8.63154 26760 ft 457 kts 310°
2026-04-22 15:16 62.51572 -8.68505 27299 ft 462 kts 310°
2026-04-22 15:16 62.53620 -8.73915 27834 ft 467 kts 310°
2026-04-22 15:16 62.55683 -8.79382 28308 ft 471 kts 310°
2026-04-22 15:16 62.57743 -8.84849 28747 ft 477 kts 310°
2026-04-22 15:17 62.59852 -8.90450 29288 ft 481 kts 310°
2026-04-22 15:17 62.61971 -8.96091 29853 ft 484 kts 310°
2026-04-22 15:17 62.64102 -9.01784 30344 ft 487 kts 310°
2026-04-22 15:17 62.66247 -9.07533 30785 ft 492 kts 310°
2026-04-22 15:18 62.68406 -9.13336 31174 ft 495 kts 310°
2026-04-22 15:18 62.70578 -9.19189 31562 ft 498 kts 310°
2026-04-22 15:18 62.72734 -9.25012 31935 ft 502 kts 310°
2026-04-22 15:18 62.74933 -9.30958 32356 ft 504 kts 310°
2026-04-22 15:19 62.77127 -9.36911 32889 ft 503 kts 310°
2026-04-22 15:19 62.79318 -9.42876 33420 ft 503 kts 310°
2026-04-22 15:19 62.81507 -9.48849 33879 ft 503 kts 310°
2026-04-22 15:19 62.83696 -9.54840 34343 ft 505 kts 310°
2026-04-22 15:20 62.85889 -9.60857 34786 ft 506 kts 310°
2026-04-22 15:20 62.88054 -9.66804 35267 ft 505 kts 309°
2026-04-22 15:20 62.90229 -9.72805 35792 ft 502 kts 309°
2026-04-22 15:20 62.92390 -9.78789 36380 ft 498 kts 309°
2026-04-22 15:21 62.94524 -9.84717 36998 ft 492 kts 309°
2026-04-22 15:21 62.96632 -9.90586 37575 ft 487 kts 309°
2026-04-22 15:21 62.98722 -9.96416 38122 ft 484 kts 308°
2026-04-22 15:21 63.00809 -10.02207 38469 ft 481 kts 309°
2026-04-22 15:22 63.05150 -10.13156 38537 ft 475 kts 313°
2026-04-22 15:22 63.09663 -10.23763 38544 ft 475 kts 314°
2026-04-22 15:23 63.14147 -10.34485 38531 ft 475 kts 313°
2026-04-22 15:23 63.18550 -10.45365 38531 ft 475 kts 312°
2026-04-22 15:24 63.22880 -10.56247 38525 ft 474 kts 312°
2026-04-22 15:24 63.27261 -10.67240 38524 ft 474 kts 312°
2026-04-22 15:25 63.31634 -10.78205 38547 ft 474 kts 312°
2026-04-22 15:25 63.35961 -10.89128 38503 ft 473 kts 312°
2026-04-22 15:26 63.40316 -11.00125 38509 ft 473 kts 312°
2026-04-22 15:26 63.44658 -11.11191 38499 ft 474 kts 311°
2026-04-22 15:27 63.48985 -11.22313 38511 ft 475 kts 311°
2026-04-22 15:27 63.53292 -11.33378 38517 ft 474 kts 311°
2026-04-22 15:28 63.57621 -11.44558 38522 ft 475 kts 311°
2026-04-22 15:28 63.61932 -11.55784 38503 ft 474 kts 311°
2026-04-22 15:29 63.66232 -11.67007 38508 ft 473 kts 311°
2026-04-22 15:30 63.72620 -11.83788 38513 ft 471 kts 311°
2026-04-22 15:30 63.76868 -11.95041 38502 ft 470 kts 311°
2026-04-22 15:31 63.81100 -12.06331 38503 ft 470 kts 311°
2026-04-22 15:31 63.85305 -12.17561 38460 ft 470 kts 311°
2026-04-22 15:32 63.89527 -12.28881 38459 ft 470 kts 310°
2026-04-22 15:32 63.93727 -12.40251 38467 ft 470 kts 310°
2026-04-22 15:33 63.97923 -12.51668 38469 ft 470 kts 310°
2026-04-22 15:33 64.02092 -12.63039 38478 ft 471 kts 310°
2026-04-22 15:34 64.06278 -12.74493 38493 ft 469 kts 310°
2026-04-22 15:34 64.10443 -12.85971 38493 ft 468 kts 310°
2026-04-22 15:35 64.13887 -12.95525 38485 ft 468 kts 310°
2026-04-22 15:35 64.18728 -13.08996 38476 ft 468 kts 310°
2026-04-22 15:36 64.22826 -13.20479 38472 ft 468 kts 310°
2026-04-22 15:36 64.26946 -13.32088 38471 ft 469 kts 309°
2026-04-22 15:37 64.31063 -13.43718 38474 ft 469 kts 309°
2026-04-22 15:37 64.35171 -13.55387 38454 ft 468 kts 309°
2026-04-22 15:38 64.39235 -13.67009 38451 ft 468 kts 309°
2026-04-22 15:38 64.45342 -13.84616 38476 ft 467 kts 309°
2026-04-22 15:39 64.49395 -13.96358 38468 ft 466 kts 309°
2026-04-22 15:39 64.53418 -14.08021 38464 ft 466 kts 309°
2026-04-22 15:40 64.57444 -14.19803 38456 ft 465 kts 309°
2026-04-22 15:40 64.61450 -14.31623 38416 ft 465 kts 308°
2026-04-22 15:41 64.65447 -14.43447 38443 ft 464 kts 308°
2026-04-22 15:41 64.69410 -14.55211 38221 ft 463 kts 308°
2026-04-22 15:42 64.71395 -14.61138 37947 ft 463 kts 308°
2026-04-22 15:42 64.73374 -14.67076 37677 ft 464 kts 308°
2026-04-22 15:42 64.75357 -14.73044 37409 ft 465 kts 308°
2026-04-22 15:42 64.77345 -14.79040 37171 ft 466 kts 308°
2026-04-22 15:43 64.79333 -14.85047 36913 ft 467 kts 308°
2026-04-22 15:43 64.81296 -14.90981 36660 ft 467 kts 308°
2026-04-22 15:43 64.83289 -14.97030 36408 ft 469 kts 308°
2026-04-22 15:43 64.85285 -15.03109 36157 ft 470 kts 308°
2026-04-22 15:44 64.87280 -15.09202 35873 ft 470 kts 308°
2026-04-22 15:44 64.89268 -15.15299 35398 ft 468 kts 308°
2026-04-22 15:44 64.91247 -15.21372 34766 ft 467 kts 308°
2026-04-22 15:44 64.93225 -15.27448 34084 ft 467 kts 308°
2026-04-22 15:45 64.95196 -15.33519 33456 ft 465 kts 308°
2026-04-22 15:45 64.97128 -15.39488 32845 ft 462 kts 308°
2026-04-22 15:45 64.99070 -15.45517 32227 ft 460 kts 307°
2026-04-22 15:45 65.01001 -15.51533 31625 ft 458 kts 307°
2026-04-22 15:46 65.02924 -15.57532 31027 ft 456 kts 307°
2026-04-22 15:46 65.04832 -15.63501 30439 ft 453 kts 307°
2026-04-22 15:46 65.06725 -15.69442 29870 ft 449 kts 307°
2026-04-22 15:46 65.08685 -15.75119 29347 ft 442 kts 314°
2026-04-22 15:47 65.10752 -15.80326 28835 ft 436 kts 314°
2026-04-22 15:47 65.12819 -15.85532 28358 ft 430 kts 314°
2026-04-22 15:47 65.14861 -15.90685 27844 ft 427 kts 314°
2026-04-22 15:47 65.16884 -15.95798 27340 ft 422 kts 314°
2026-04-22 15:48 65.18886 -16.00873 26820 ft 419 kts 314°
2026-04-22 15:48 65.20867 -16.05909 26305 ft 415 kts 314°
2026-04-22 15:48 65.22835 -16.10921 25758 ft 412 kts 314°
2026-04-22 15:48 65.24785 -16.15899 25214 ft 409 kts 314°
2026-04-22 15:49 65.26724 -16.20861 24641 ft 407 kts 314°
2026-04-22 15:49 65.28622 -16.25741 24085 ft 406 kts 314°
2026-04-22 15:49 65.30535 -16.30673 23450 ft 404 kts 314°
2026-04-22 15:49 65.32431 -16.35574 22912 ft 399 kts 314°
2026-04-22 15:50 65.34302 -16.40420 22376 ft 395 kts 314°
2026-04-22 15:50 65.36147 -16.45209 21915 ft 388 kts 313°
2026-04-22 15:50 65.37965 -16.49935 21349 ft 385 kts 313°
2026-04-22 15:50 65.39760 -16.54610 20953 ft 378 kts 313°
2026-04-22 15:51 65.41504 -16.59164 20449 ft 374 kts 313°
2026-04-22 15:51 65.43257 -16.63746 19947 ft 371 kts 313°
2026-04-22 15:51 65.44991 -16.68290 19461 ft 367 kts 313°
2026-04-22 15:51 65.46703 -16.72793 18990 ft 362 kts 313°
2026-04-22 15:52 65.48395 -16.77244 18489 ft 359 kts 313°
2026-04-22 15:52 65.50069 -16.81652 17984 ft 355 kts 313°
2026-04-22 15:52 65.51725 -16.86024 17457 ft 351 kts 313°
2026-04-22 15:52 65.53364 -16.90358 16957 ft 349 kts 313°
2026-04-22 15:53 65.54974 -16.94630 16466 ft 346 kts 313°
2026-04-22 15:53 65.56590 -16.98922 15961 ft 344 kts 312°
2026-04-22 15:53 65.58194 -17.03189 15447 ft 343 kts 312°
2026-04-22 15:53 65.59784 -17.07431 15007 ft 339 kts 312°
2026-04-22 15:54 65.61359 -17.11651 14577 ft 336 kts 311°
2026-04-22 15:54 65.62913 -17.15828 14107 ft 333 kts 311°
2026-04-22 15:54 65.64451 -17.19971 13655 ft 329 kts 311°
2026-04-22 15:54 65.65977 -17.24080 13159 ft 326 kts 311°
2026-04-22 15:55 65.67458 -17.28080 12733 ft 321 kts 311°
2026-04-22 15:55 65.68941 -17.32088 12273 ft 318 kts 311°
2026-04-22 15:55 65.70389 -17.36075 12007 ft 309 kts 309°
2026-04-22 15:55 65.71713 -17.40049 11756 ft 298 kts 307°
2026-04-22 15:56 65.72964 -17.44006 11163 ft 293 kts 306°
2026-04-22 15:56 65.74183 -17.47951 10588 ft 290 kts 306°
2026-04-22 15:56 65.75373 -17.51818 10270 ft 278 kts 306°
2026-04-22 15:56 65.76499 -17.55461 9787 ft 265 kts 306°
2026-04-22 15:57 65.77582 -17.58949 9232 ft 258 kts 307°
2026-04-22 15:57 65.78640 -17.62346 8785 ft 246 kts 307°
2026-04-22 15:57 65.79665 -17.65627 8375 ft 242 kts 307°
2026-04-22 15:57 65.80698 -17.68934 7777 ft 250 kts 307°
2026-04-22 15:58 65.81765 -17.72348 7210 ft 255 kts 307°
2026-04-22 15:58 65.82842 -17.75797 6718 ft 256 kts 307°
2026-04-22 15:58 65.83890 -17.79299 6218 ft 252 kts 301°
2026-04-22 15:58 65.84576 -17.83149 5824 ft 244 kts 286°
2026-04-22 15:59 65.84950 -17.87149 5590 ft 246 kts 283°
2026-04-22 15:59 65.85322 -17.91202 5330 ft 242 kts 282°
2026-04-22 15:59 65.85685 -17.95132 5044 ft 231 kts 281°
2026-04-22 15:59 65.85802 -17.98927 4780 ft 220 kts 265°
2026-04-22 16:00 65.85497 -18.02490 4478 ft 211 kts 252°
2026-04-22 16:00 65.85056 -18.05851 4180 ft 205 kts 252°
2026-04-22 16:00 65.84527 -18.08993 3878 ft 196 kts 236°
2026-04-22 16:00 65.83525 -18.11080 3720 ft 189 kts 205°
2026-04-22 16:01 65.82257 -18.11599 3528 ft 186 kts 176°
2026-04-22 16:01 65.80992 -18.11211 3239 ft 185 kts 173°
2026-04-22 16:01 65.79723 -18.10814 2949 ft 183 kts 174°
2026-04-22 16:01 65.78485 -18.10452 2667 ft 173 kts 174°
2026-04-22 16:02 65.77322 -18.10121 2426 ft 165 kts 175°
2026-04-22 16:02 65.76237 -18.09813 2181 ft 147 kts 174°
2026-04-22 16:02 65.75276 -18.09542 1942 ft 132 kts 173°
2026-04-22 16:02 65.74395 -18.09296 1712 ft 123 kts 172°
2026-04-22 16:03 65.73540 -18.09055 1522 ft 124 kts 171°
2026-04-22 16:03 65.72695 -18.08817 1285 ft 125 kts 172°
2026-04-22 16:03 65.71841 -18.08576 1085 ft 124 kts 172°
2026-04-22 16:03 65.70991 -18.08329 917 ft 123 kts 172°
2026-04-22 16:04 65.70147 -18.08098 770 ft 122 kts 174°
2026-04-22 16:04 65.69299 -18.07922 607 ft 121 kts 174°
2026-04-22 16:04 65.68466 -18.07730 412 ft 119 kts 174°
2026-04-22 16:04 65.67646 -18.07582 247 ft 117 kts 174°
2026-04-22 16:05 65.66846 -18.07423 83 ft 117 kts 175°
2026-04-22 16:05 65.66083 -18.07277 21 ft 94 kts 176°
2026-04-22 16:05 65.65603 -18.07191 21 ft 44 kts 175°
2026-04-22 16:05 65.65413 -18.07160 22 ft 14 kts 180°
2026-04-22 16:06 65.65332 -18.07178 23 ft 8 kts 170°
2026-04-22 16:06 65.65342 -18.07141 23 ft 8 kts 11°
2026-04-22 16:06 65.65404 -18.07152 22 ft 9 kts 354°
2026-04-22 16:06 65.65464 -18.07173 22 ft 9 kts 343°
2026-04-22 16:07 65.65481 -18.07287 21 ft 7 kts 271°
2026-04-22 16:07 65.65479 -18.07354 21 ft 1 kts 264°
2026-04-22 16:07 65.65477 -18.07381 21 ft 2 kts 258°
2026-04-22 16:07 65.65471 -18.07402 22 ft 1 kts 215°
2026-04-22 16:08 65.65446 -18.07414 21 ft 4 kts 186°
2026-04-22 16:08 65.65430 -18.07462 23 ft 4 kts 252°
2026-04-22 16:08 65.65439 -18.07495 23 ft 2 kts 321°
2026-04-22 16:08 65.65445 -18.07493 21 ft 0 kts 356°